LIC0243 GMMX-LEPA

Flight info

Callsign LIC0243
Flight time 1h 48m
Altitude 34000
Route OBOGA UG850 BERUM N860 AMR Y810 ALT N851 RUXET
Aircraft B738/M-SBDGIJ1LRWY/SB1

Departure

Time 2026-05-04 15:22
Airport Marrakesh Menara Airport (GMMX)

Arrival

Time 2026-05-04 17:10
Airport Palma de Mallorca Airport (LEPA)
Time Latitude Longitude Altitude Speed Heading
2026-05-04 15:08 31.60344 -8.02589 1563 ft 0 kts 187°
2026-05-04 15:13 31.60348 -8.02589 1562 ft 2 kts 187°
2026-05-04 15:14 31.60363 -8.02586 1562 ft 2 kts 187°
2026-05-04 15:14 31.60377 -8.02584 1561 ft 2 kts 187°
2026-05-04 15:14 31.60393 -8.02582 1561 ft 2 kts 192°
2026-05-04 15:14 31.60406 -8.02575 1560 ft 2 kts 220°
2026-05-04 15:15 31.60416 -8.02562 1560 ft 2 kts 242°
2026-05-04 15:15 31.60421 -8.02545 1561 ft 2 kts 264°
2026-05-04 15:15 31.60422 -8.02535 1561 ft 1 kts 276°
2026-05-04 15:16 31.60421 -8.02529 1561 ft 0 kts 276°
2026-05-04 15:17 31.60422 -8.02543 1560 ft 5 kts 276°
2026-05-04 15:18 31.60428 -8.02621 1559 ft 14 kts 276°
2026-05-04 15:18 31.60441 -8.02772 1556 ft 23 kts 275°
2026-05-04 15:18 31.60459 -8.02966 1550 ft 25 kts 276°
2026-05-04 15:19 31.60496 -8.03387 1546 ft 25 kts 276°
2026-05-04 15:19 31.60515 -8.03592 1545 ft 25 kts 277°
2026-05-04 15:19 31.60550 -8.04006 1540 ft 26 kts 275°
2026-05-04 15:20 31.60569 -8.04220 1538 ft 26 kts 276°
2026-05-04 15:20 31.60587 -8.04435 1536 ft 26 kts 276°
2026-05-04 15:20 31.60608 -8.04651 1533 ft 26 kts 277°
2026-05-04 15:20 31.60626 -8.04870 1527 ft 27 kts 276°
2026-05-04 15:21 31.60645 -8.05085 1524 ft 24 kts 276°
2026-05-04 15:21 31.60680 -8.05242 1522 ft 17 kts 330°
2026-05-04 15:21 31.60819 -8.05070 1521 ft 40 kts 95°
2026-05-04 15:22 31.60769 -8.04486 1529 ft 101 kts 97°
2026-05-04 15:22 31.60678 -8.03457 1543 ft 151 kts 94°
2026-05-04 15:22 31.60329 -8.00785 2318 ft 174 kts 109°
2026-05-04 15:23 31.59759 -7.99524 2716 ft 183 kts 120°
2026-05-04 15:23 31.59099 -7.98206 3062 ft 192 kts 114°
2026-05-04 15:23 31.58555 -7.96728 3410 ft 204 kts 108°
2026-05-04 15:23 31.58054 -7.95076 3640 ft 225 kts 107°
2026-05-04 15:24 31.56811 -7.91453 4421 ft 253 kts 111°
2026-05-04 15:24 31.56433 -7.87479 5610 ft 252 kts 69°
2026-05-04 15:25 31.57246 -7.85694 6255 ft 251 kts 52°
2026-05-04 15:25 31.58421 -7.84169 6820 ft 254 kts 38°
2026-05-04 15:25 31.59965 -7.83164 7372 ft 257 kts 13°
2026-05-04 15:26 31.63511 -7.83131 8630 ft 259 kts 354°
2026-05-04 15:26 31.65326 -7.83291 9259 ft 263 kts 354°
2026-05-04 15:26 31.69040 -7.83569 10502 ft 272 kts 354°
2026-05-04 15:27 31.70938 -7.83712 11118 ft 277 kts 353°
2026-05-04 15:27 31.74808 -7.84005 12449 ft 283 kts 353°
2026-05-04 15:28 31.78783 -7.84292 13799 ft 290 kts 355°
2026-05-04 15:28 31.80785 -7.84071 14433 ft 299 kts 12°
2026-05-04 15:28 31.84264 -7.81053 15341 ft 331 kts 48°
2026-05-04 15:29 31.85775 -7.78946 15720 ft 344 kts 47°
2026-05-04 15:30 31.92735 -7.69853 17080 ft 402 kts 45°
2026-05-04 15:30 31.98597 -7.62281 18490 ft 428 kts 45°
2026-05-04 15:31 32.02647 -7.57022 19707 ft 438 kts 45°
2026-05-04 15:31 32.04699 -7.54356 20304 ft 442 kts 45°
2026-05-04 15:32 32.10972 -7.46190 22025 ft 455 kts 45°
2026-05-04 15:32 32.15263 -7.40580 23050 ft 464 kts 45°
2026-05-04 15:33 32.19594 -7.34906 24072 ft 472 kts 45°
2026-05-04 15:34 32.26278 -7.26126 25589 ft 481 kts 45°
2026-05-04 15:34 32.28516 -7.23185 26074 ft 484 kts 45°
2026-05-04 15:34 32.33048 -7.17232 27013 ft 490 kts 45°
2026-05-04 15:35 32.37625 -7.11217 27850 ft 496 kts 45°
2026-05-04 15:35 32.39918 -7.08199 28492 ft 494 kts 45°
2026-05-04 15:35 32.42191 -7.05201 29175 ft 490 kts 45°
2026-05-04 15:36 32.46752 -6.99179 30177 ft 490 kts 45°
2026-05-04 15:36 32.49018 -6.96186 30622 ft 491 kts 45°
2026-05-04 15:36 32.51315 -6.93148 31045 ft 492 kts 45°
2026-05-04 15:37 32.53573 -6.90161 31499 ft 491 kts 45°
2026-05-04 15:37 32.55865 -6.87126 31996 ft 490 kts 45°
2026-05-04 15:37 32.58130 -6.84124 32459 ft 489 kts 45°
2026-05-04 15:37 32.60387 -6.81131 32795 ft 491 kts 44°
2026-05-04 15:38 32.62667 -6.78105 33140 ft 492 kts 45°
2026-05-04 15:38 32.64951 -6.75071 33510 ft 492 kts 45°
2026-05-04 15:38 32.67218 -6.72058 33823 ft 494 kts 45°
2026-05-04 15:38 32.69515 -6.69003 34058 ft 496 kts 44°
2026-05-04 15:39 32.74096 -6.62898 34063 ft 491 kts 45°
2026-05-04 15:40 32.80915 -6.53795 34070 ft 491 kts 45°
2026-05-04 15:40 32.85439 -6.47745 34083 ft 491 kts 45°
2026-05-04 15:41 32.89973 -6.41665 34085 ft 489 kts 45°
2026-05-04 15:41 32.94495 -6.35594 34062 ft 487 kts 45°
2026-05-04 15:42 32.98999 -6.29562 34061 ft 489 kts 45°
2026-05-04 15:42 33.03528 -6.23493 34060 ft 487 kts 45°
2026-05-04 15:43 33.08010 -6.17475 34065 ft 489 kts 45°
2026-05-04 15:43 33.12544 -6.11379 34068 ft 490 kts 45°
2026-05-04 15:44 33.17052 -6.05302 34069 ft 491 kts 45°
2026-05-04 15:44 33.21578 -5.99189 34077 ft 491 kts 46°
2026-05-04 15:45 33.26119 -5.93048 34078 ft 491 kts 45°
2026-05-04 15:45 33.30626 -5.86940 34080 ft 491 kts 45°
2026-05-04 15:46 33.35150 -5.80795 34075 ft 490 kts 45°
2026-05-04 15:46 33.39655 -5.74651 34077 ft 491 kts 45°
2026-05-04 15:47 33.44128 -5.68534 34063 ft 492 kts 45°
2026-05-04 15:47 33.48647 -5.62346 34075 ft 493 kts 45°
2026-05-04 15:48 33.53144 -5.56177 34067 ft 493 kts 46°
2026-05-04 15:48 33.59926 -5.46855 34062 ft 492 kts 45°
2026-05-04 15:49 33.64410 -5.40680 34083 ft 495 kts 46°
2026-05-04 15:49 33.68944 -5.34425 34076 ft 492 kts 46°
2026-05-04 15:50 33.73456 -5.28190 34077 ft 494 kts 46°
2026-05-04 15:50 33.77937 -5.21985 34073 ft 494 kts 46°
2026-05-04 15:51 33.82454 -5.15722 34080 ft 495 kts 46°
2026-05-04 15:51 33.86974 -5.09444 34078 ft 496 kts 46°
2026-05-04 15:52 33.91512 -5.03229 34074 ft 494 kts 44°
2026-05-04 15:52 33.96534 -4.97626 34073 ft 490 kts 35°
2026-05-04 15:53 34.01934 -4.92645 34060 ft 489 kts 32°
2026-05-04 15:53 34.07420 -4.87806 34054 ft 489 kts 32°
2026-05-04 15:54 34.12938 -4.82894 34049 ft 490 kts 32°
2026-05-04 15:54 34.18390 -4.77964 34042 ft 488 kts 32°
2026-05-04 15:55 34.23809 -4.73015 34026 ft 489 kts 32°
2026-05-04 15:55 34.29222 -4.68048 34021 ft 488 kts 33°
2026-05-04 15:56 34.34633 -4.63066 34029 ft 489 kts 33°
2026-05-04 15:56 34.40057 -4.58067 34042 ft 491 kts 32°
2026-05-04 15:57 34.45476 -4.53032 34048 ft 491 kts 33°
2026-05-04 15:57 34.50905 -4.47962 34052 ft 493 kts 33°
2026-05-04 15:58 34.56326 -4.42887 34053 ft 492 kts 33°
2026-05-04 15:58 34.61760 -4.37791 34053 ft 492 kts 33°
2026-05-04 15:59 34.67214 -4.32675 34078 ft 492 kts 33°
2026-05-04 15:59 34.72639 -4.27577 34075 ft 496 kts 33°
2026-05-04 16:00 34.78086 -4.22452 34083 ft 494 kts 33°
2026-05-04 16:00 34.83531 -4.17318 34077 ft 497 kts 33°
2026-05-04 16:01 34.88978 -4.12173 34068 ft 498 kts 33°
2026-05-04 16:01 34.94464 -4.06981 34056 ft 496 kts 33°
2026-05-04 16:02 34.99918 -4.01814 34052 ft 498 kts 33°
2026-05-04 16:03 35.08121 -3.94024 34046 ft 498 kts 33°
2026-05-04 16:03 35.13611 -3.88800 34035 ft 499 kts 33°
2026-05-04 16:04 35.19107 -3.83562 34025 ft 501 kts 32°
2026-05-04 16:04 35.27431 -3.75789 34015 ft 499 kts 31°
2026-05-04 16:05 35.33006 -3.70652 34006 ft 503 kts 31°
2026-05-04 16:06 35.41339 -3.62944 33992 ft 500 kts 31°
2026-05-04 16:07 35.52479 -3.52579 33976 ft 503 kts 32°
2026-05-04 16:08 35.63557 -3.42217 33971 ft 500 kts 32°
2026-05-04 16:09 35.77441 -3.29182 33961 ft 504 kts 32°
2026-05-04 16:10 35.88547 -3.18666 33954 ft 504 kts 33°
2026-05-04 16:11 35.99590 -3.07995 33953 ft 506 kts 32°
2026-05-04 16:12 36.16186 -2.91900 33940 ft 504 kts 33°
2026-05-04 16:13 36.27271 -2.81197 33939 ft 504 kts 32°
2026-05-04 16:14 36.38398 -2.70582 33939 ft 505 kts 32°
2026-05-04 16:16 36.52207 -2.57252 33931 ft 504 kts 33°
2026-05-04 16:17 36.65875 -2.43531 33930 ft 504 kts 33°
2026-05-04 16:18 36.76811 -2.32537 33932 ft 505 kts 34°
2026-05-04 16:19 36.89431 -2.17143 33950 ft 511 kts 46°
2026-05-04 16:20 37.00680 -2.00043 33934 ft 512 kts 48°
2026-05-04 16:22 37.11969 -1.82917 33912 ft 510 kts 47°
2026-05-04 16:23 37.25512 -1.62349 33899 ft 511 kts 47°
2026-05-04 16:25 37.39063 -1.41609 33904 ft 512 kts 47°
2026-05-04 16:26 37.54800 -1.17360 33897 ft 512 kts 48°
2026-05-04 16:28 37.66039 -0.99940 33898 ft 512 kts 48°
2026-05-04 16:29 37.83670 -0.78500 33908 ft 497 kts 18°
2026-05-04 16:31 37.99659 -0.70441 33902 ft 494 kts 14°
2026-05-04 16:32 38.18835 -0.61018 33901 ft 491 kts 16°
2026-05-04 16:33 38.24766 -0.56624 33902 ft 507 kts 37°
2026-05-04 16:33 38.29090 -0.49506 33912 ft 515 kts 62°
2026-05-04 16:34 38.33458 -0.36995 33913 ft 514 kts 69°
2026-05-04 16:35 38.41469 -0.11806 33913 ft 514 kts 68°
2026-05-04 16:36 38.45636 0.00724 33917 ft 514 kts 68°
2026-05-04 16:37 38.49726 0.13344 33918 ft 512 kts 69°
2026-05-04 16:38 38.55093 0.30189 33921 ft 512 kts 69°
2026-05-04 16:39 38.61792 0.51297 33922 ft 512 kts 69°
2026-05-04 16:40 38.66663 0.68301 33925 ft 509 kts 78°
2026-05-04 16:41 38.69573 0.90558 33930 ft 505 kts 86°
2026-05-04 16:43 38.71887 1.12823 33347 ft 502 kts 86°
2026-05-04 16:43 38.72819 1.21554 32463 ft 491 kts 86°
2026-05-04 16:43 38.73282 1.25878 31980 ft 487 kts 86°
2026-05-04 16:44 38.75075 1.42789 29980 ft 474 kts 86°
2026-05-04 16:45 38.75945 1.51070 28977 ft 468 kts 86°
2026-05-04 16:46 38.77222 1.63328 27479 ft 458 kts 86°
2026-05-04 16:46 38.78050 1.71345 26483 ft 451 kts 86°
2026-05-04 16:47 38.78856 1.79216 25498 ft 444 kts 86°
2026-05-04 16:47 38.79665 1.86984 24514 ft 439 kts 84°
2026-05-04 16:48 38.83078 1.97599 23064 ft 435 kts 53°
2026-05-04 16:48 38.84899 2.00703 22566 ft 432 kts 51°
2026-05-04 16:49 38.88627 2.06664 21573 ft 427 kts 50°
2026-05-04 16:49 38.92317 2.12557 20585 ft 423 kts 50°
2026-05-04 16:50 38.95917 2.18415 19600 ft 417 kts 50°
2026-05-04 16:50 38.99446 2.24236 18636 ft 411 kts 50°
2026-05-04 16:51 39.02907 2.29982 17646 ft 398 kts 50°
2026-05-04 16:51 39.04569 2.32754 17188 ft 387 kts 50°
2026-05-04 16:51 39.07768 2.38093 16302 ft 370 kts 50°
2026-05-04 16:52 39.10877 2.43287 15373 ft 367 kts 51°
2026-05-04 16:52 39.12434 2.45890 14928 ft 365 kts 51°
2026-05-04 16:53 39.15588 2.50920 14126 ft 355 kts 45°
2026-05-04 16:53 39.21073 2.56404 13045 ft 326 kts 30°
2026-05-04 16:54 39.23013 2.57999 12521 ft 332 kts 29°
2026-05-04 16:55 39.30545 2.64443 10909 ft 316 kts 31°
2026-05-04 16:55 39.33948 2.67795 9966 ft 309 kts 51°
2026-05-04 16:56 39.36149 2.72442 9018 ft 298 kts 62°
2026-05-04 16:56 39.39010 2.79323 7683 ft 284 kts 62°
2026-05-04 16:57 39.39939 2.81569 7221 ft 281 kts 62°
2026-05-04 16:57 39.41760 2.85963 6335 ft 275 kts 62°
2026-05-04 16:58 39.44420 2.92361 5057 ft 266 kts 62°
2026-05-04 16:58 39.45277 2.94409 4989 ft 253 kts 62°
2026-05-04 16:59 39.46964 2.98434 4979 ft 252 kts 62°
2026-05-04 17:00 39.51267 3.05332 4975 ft 249 kts 32°
2026-05-04 17:00 39.55580 3.09126 4973 ft 249 kts 32°
2026-05-04 17:01 39.58442 3.11644 4965 ft 248 kts 32°
2026-05-04 17:01 39.61298 3.14171 4961 ft 248 kts 32°
2026-05-04 17:02 39.64331 3.16089 4942 ft 241 kts 358°
2026-05-04 17:02 39.67148 3.14361 4146 ft 227 kts 300°
2026-05-04 17:03 39.67916 3.12575 3747 ft 224 kts 292°
2026-05-04 17:03 39.68583 3.10782 3399 ft 222 kts 292°
2026-05-04 17:03 39.69720 3.07156 2954 ft 212 kts 271°
2026-05-04 17:04 39.68661 3.03748 2964 ft 206 kts 233°
2026-05-04 17:04 39.67071 3.00621 2967 ft 209 kts 238°
2026-05-04 17:05 39.65587 2.97427 2978 ft 193 kts 238°
2026-05-04 17:05 39.64220 2.94529 2978 ft 188 kts 238°
2026-05-04 17:06 39.62847 2.91616 2779 ft 187 kts 238°
2026-05-04 17:06 39.62187 2.90214 2498 ft 179 kts 238°
2026-05-04 17:07 39.60999 2.87698 2059 ft 152 kts 238°
2026-05-04 17:07 39.60628 2.86913 1930 ft 154 kts 238°
2026-05-04 17:07 39.59900 2.85369 1667 ft 147 kts 238°
2026-05-04 17:07 39.59381 2.84269 1442 ft 138 kts 238°
2026-05-04 17:08 39.58871 2.83192 1292 ft 141 kts 237°
2026-05-04 17:08 39.57853 2.81038 902 ft 139 kts 238°
2026-05-04 17:08 39.57343 2.79962 715 ft 139 kts 236°
2026-05-04 17:09 39.56834 2.78889 530 ft 141 kts 236°
2026-05-04 17:09 39.56328 2.77804 351 ft 139 kts 237°
2026-05-04 17:09 39.55824 2.76744 145 ft 139 kts 237°
2026-05-04 17:10 39.54973 2.74970 21 ft 54 kts 237°
2026-05-04 17:10 39.54800 2.74339 31 ft 6 kts 269°
2026-05-04 17:11 39.54800 2.74301 32 ft 0 kts 268°
2026-05-04 17:11 39.54800 2.74243 33 ft 12 kts 273°
2026-05-04 17:12 39.54821 2.74153 36 ft 8 kts 305°
2026-05-04 17:12 39.54944 2.74032 43 ft 12 kts 329°
2026-05-04 17:13 39.55106 2.73904 47 ft 7 kts 329°
2026-05-04 17:14 39.55154 2.73644 48 ft 13 kts 239°
2026-05-04 17:14 39.55100 2.73535 42 ft 14 kts 220°
2026-05-04 17:14 39.55047 2.73540 41 ft 0 kts 165°